Miscellaneous Local Product
Issued by NWS North Platte, NE

Home | Current Version | Previous Version | Text Only | Print | Product List | Glossary On
Versions: 1 2 3 4 5 6 7 8 9 10 11 12 13 14 15 16 17 18 19 20 21 22 23 24 25 26 27 28 29 30 31 32 33 34 35 36 37 38 39 40 41 42 43 44 45 46 47 48 49 50
000
AXUS43 KLBF 182010
MISLBF


WESTERN AND NORTH CENTRAL NEBRASKA HOURLY WEATHER ROUNDUP
NATIONAL WEATHER SERVICE NORTH PLATTE NE
300 PM CDT WED OCT 18 2017

NOTE: "FAIR" INDICATES FEW OR NO CLOUDS BELOW 12,000 FEET WITH NO
SIGNIFICANT WEATHER AND/OR OBSTRUCTIONS TO VISIBILITY.

NOTE: STATIONS NOT REPORTING VARIABLES SUCH AS SKY/WEATHER OR
PRESSURE ARE PROVIDED BY RAWS AND APRS NETWORKS AND ARE NOT UNDER
NATIONAL WEATHER SERVICE QUALITY CONTROL.

...OBSERVATIONS IN AND NEAR THE EASTERN PANHANDLE OF NEBRASKA...

CITY           SKY/WX    TMP DP  RH WIND       PRES   REMARKS
PINE RIDGE     SUNNY     66  28  24 VRB3      30.09F
GORDON         FAIR      65  25  21 NE5       30.09F
CHADRON        SUNNY     68  26  20 E8        30.08F
ALLIANCE       SUNNY     69  26  20 E7        30.09F
SIDNEY         SUNNY     73  22  14 E6        30.12S
CRESCENT LAKE    N/A     70  27  20 NE9         N/A
$$

...OBSERVATIONS IN NORTHERN NEBRASKA AND FAR SOUTHERN SOUTH DAKOTA...

CITY           SKY/WX    TMP DP  RH WIND       PRES   REMARKS
WINNER         FAIR      69  30  23 N15       30.05S
VALENTINE      SUNNY     69  29  22 N9        30.07S
THEDFORD       SUNNY     71  33  25 NE16      30.07S
AINSWORTH      SUNNY     66  35  30 N14G22    30.06S
O`NEILL        SUNNY     70  37  29 N14G20    30.02R
ORD            SUNNY     73  32  22 N16G22    30.00R
BROKEN BOW     SUNNY     73  36  25 N13G25    30.02S
VALENTINE NWR    N/A     67  30  25 N9G21       N/A
HALSEY           N/A     71  31  22 N8G16       N/A
BUTTE            N/A     68  35  29 N14G21      N/A
CHAMBERS         N/A     70  36  28 MISG        N/A
EWING            N/A     71  38  30 N7G16       N/A
$$

...OBSERVATIONS IN SOUTHWEST NEBRASKA AND FAR NORTHEAST COLORADO...

CITY           SKY/WX    TMP DP  RH WIND       PRES   REMARKS
WRAY           FAIR      81  16   9 N13       30.06F
HOLYOKE        FAIR      79  19  11 NE6       30.07F
IMPERIAL       SUNNY     79  20  11 NE13      30.05F
OGALLALA       SUNNY     75  27  16 E10G18    30.06S
NORTH PLATTE   SUNNY     75  32  20 NE13      30.04S
MCCOOK         SUNNY     80  32  17 N18G28    30.00F
LEXINGTON      SUNNY     74  33  21 N20G25    30.01R
STAPLETON        N/A     70  35  27 NE7G14      N/A
GOTHENBURG       N/A     74  28  18 N12         N/A
CALLAWAY         N/A     73  37  26 NE12        N/A
$$

...OBSERVATIONS IN CENTRAL LINCOLN COUNTY AREA...

CITY           SKY/WX    TMP DP  RH WIND       PRES   REMARKS
N.P. AIRPORT   SUNNY     75  32  20 NE13      30.04S
N.P. DOWNTOWN    N/A     73  35  25 NE8         N/A
N.P. SOUTHEAST   N/A     73  34  24 NE5G14      N/A
N.P. HILLCREST   N/A     72  33  24 NE14G21     N/A
$$

...SOME OBSERVATIONS FROM AROUND THE REGION...

CITY           SKY/WX    TMP DP  RH WIND       PRES   REMARKS
DENVER         MOSUNNY   75   9   8 W5        30.14F
LIMON          SUNNY     76  12   8 CALM      30.15F
ASPEN          SUNNY     68   2   7 N8        30.30F
LARAMIE        SUNNY     66   6   9 SW10G21   30.21F
CASPER         SUNNY     70  12  10 SW18G24   30.10F
CHEYENNE       SUNNY     72   8   8 NW9       30.16F
SCOTTSBLUFF    SUNNY     72  23  16 SE9       30.09F
GRAND ISLAND   SUNNY     77  37  23 N13       29.96S
OMAHA          MOSUNNY   75  48  38 SW9       29.91F
SIOUX FALLS    MOSUNNY   74  39  28 N14       29.95R
PIERRE         SUNNY     64  21  19 N12       30.02F
RAPID CITY     SUNNY     62  24  23 SE9       30.06F
BISMARCK       SUNNY     61  21  21 W20G28    29.98R
KANSAS CITY    PTSUNNY   73  49  42 S18G24    29.98F
HILL CITY      CLOUDY    84  30  14 N13G20    29.98S
WICHITA        MOSUNNY   76  49  38 S13       29.98F
DODGE CITY     SUNNY     88  29  12 CALM      29.99F
OKLAHOMA CITY  MOSUNNY   79  43  27 S16G25    30.03F
DALLAS         MOSUNNY   82  41  23 S13       30.07F
AMARILLO       SUNNY     77  40  26 S13       30.04F
$$




USA.gov is the U.S. government's official web portal to all federal, state and local government web resources and services.